Weather History for Joplin, MO

Change the Weather History Date:

Monday, July 15, 2013

  Actual Average Record
Temperature  
Mean Temperature 80 °F 80 °F  
Max Temperature 92 °F 91 °F 105 °F (1954)
Min Temperature 68 °F 70 °F 53 °F (1967)
Degree Days  
Heating Degree Days 0 0  
Month to date heating degree days 0 0  
Since 1 June heating degree days 12 5  
Since 1 July heating degree days 0 0  
Cooling Degree Days 15 15  
Month to date cooling degree days 202 221  
Year to date cooling degree days 669 719  
Since 1 June cooling degree days 525 539  
Growing Degree Days 30 (Base 50)    
Moisture  
Dew Point 65 °F    
Average Humidity 67    
Maximum Humidity 93    
Minimum Humidity 40    
Precipitation  
Precipitation 0.02 in 0.12 in 1.20 in (1989)
Month to date precipitation 0.11 2.06  
Year to date precipitation 27.89 25.87  
Snow  
Snow 0.00 in - - ()
Month to date snowfall 0.0  
Since 1 June snowfall 0.0  
Snow Depth 0.00 in    
Sea Level Pressure  
Sea Level Pressure 30.11 in    
Wind  
Wind Speed 7 mph (ESE)    
Max Wind Speed 17 mph    
Max Gust Speed 22 mph    
Visibility 9 miles    
Events Rain    
T = Trace of Precipitation, MM = Missing Value Source: NWS Daily Summary

Daily Weather History Graph

Daily Weather History Graph

Search for Another Location

Airport:

Trip Planner

Search our weather history database for the weather conditions in past years. The results will help you decide how hot, cold, wet, or windy it might be!

Date:

Astronomy

Jul. 15, 2013 Rise Set
Actual Time 6:09 AM CDT 8:37 PM CDT
Civil Twilight 5:39 AM CDT 9:07 PM CDT
Nautical Twilight 5:02 AM CDT 9:44 PM CDT
Astronomical Twilight 4:21 AM CDT 10:25 PM CDT
Moon 1:18 PM CDT (7/15) 12:01 AM CDT (7/15)
Length of Visible Light 15h 27m
Length of Day
14h 27m
Waxing Crescent, 45% of the Moon is Illuminated
Jul 15
Waxing Crescent
Jul 15
First Quarter
Jul 22
Full
Jul 29
Last Quarter
Aug 6
New

Hourly Weather History & Observations

Time (CDT) Temp. Heat Index Dew Point Humidity Pressure Visibility Wind Dir Wind Speed Gust Speed Precip Events Conditions
12:53 AM 71.1 °F - 55.9 °F 59% 30.06 in 10.0 mi East 5.8 mph - N/A   Clear
1:53 AM 69.1 °F - 57.0 °F 65% 30.07 in 10.0 mi East 6.9 mph - N/A   Clear
2:53 AM 69.1 °F - 57.9 °F 68% 30.07 in 10.0 mi ENE 4.6 mph - N/A   Clear
3:53 AM 70.0 °F - 60.1 °F 71% 30.07 in 10.0 mi East 8.1 mph - N/A   Clear
4:53 AM 70.0 °F - 62.1 °F 76% 30.08 in 10.0 mi East 6.9 mph - N/A   Clear
5:53 AM 69.1 °F - 62.1 °F 78% 30.08 in 10.0 mi East 5.8 mph - N/A   Clear
6:53 AM 69.1 °F - 63.0 °F 81% 30.11 in 10.0 mi East 4.6 mph - N/A   Mostly Cloudy
7:53 AM 71.1 °F - 64.9 °F 81% 30.12 in 10.0 mi East 6.9 mph - N/A   Mostly Cloudy
8:53 AM 73.9 °F - 66.0 °F 76% 30.14 in 10.0 mi ESE 9.2 mph - N/A   Overcast
9:53 AM 78.1 °F - 66.9 °F 68% 30.14 in 10.0 mi ESE 10.4 mph - N/A   Scattered Clouds
10:53 AM 82.0 °F 84.5 °F 66.9 °F 60% 30.14 in 10.0 mi ESE 9.2 mph - N/A   Mostly Cloudy
11:53 AM 86.0 °F 88.8 °F 66.9 °F 53% 30.13 in 10.0 mi SSE 9.2 mph 17.3 mph N/A   Clear
12:53 PM 89.1 °F 90.3 °F 64.0 °F 43% 30.12 in 10.0 mi SSE 8.1 mph - N/A   Clear
1:53 PM 90.0 °F 90.3 °F 62.1 °F 39% 30.10 in 10.0 mi SE 11.5 mph 17.3 mph N/A   Partly Cloudy
2:53 PM 88.0 °F 87.9 °F 61.0 °F 40% 30.09 in 10.0 mi East 5.8 mph - N/A   Partly Cloudy
3:53 PM 89.1 °F 89.3 °F 62.1 °F 40% 30.07 in 10.0 mi East 9.2 mph - N/A   Mostly Cloudy
4:53 PM 90.0 °F 90.6 °F 63.0 °F 40% 30.06 in 10.0 mi ESE 11.5 mph 18.4 mph N/A   Scattered Clouds
5:48 PM 82.4 °F 84.6 °F 66.2 °F 58% 30.11 in 10.0 mi West 12.7 mph - N/A   Mostly Cloudy
5:53 PM 81.0 °F 83.0 °F 66.0 °F 60% 30.09 in 10.0 mi WSW 12.7 mph - N/A   Mostly Cloudy
6:53 PM 81.0 °F 83.8 °F 68.0 °F 65% 30.09 in 10.0 mi WNW 6.9 mph - N/A   Scattered Clouds
7:53 PM 72.0 °F - 70.0 °F 93% 30.13 in 10.0 mi Calm Calm - 0.02 in   Overcast
8:53 PM 72.0 °F - 70.0 °F 93% 30.12 in 7.0 mi NNW 3.5 mph - N/A   Overcast
9:53 PM 73.0 °F - 70.0 °F 90% 30.16 in 7.0 mi South 5.8 mph - 0.00 in Rain Light Rain
10:53 PM 73.0 °F - 71.1 °F 93% 30.16 in 6.0 mi Calm Calm - 0.00 in Rain Light Rain
11:53 PM 72.0 °F - 71.1 °F 97% 30.17 in 4.0 mi Calm Calm - N/A   Mostly Cloudy